CZ-6A DEB, 61141

Orbit data source: Space-Track

CZ-6A DEB, 61141 is space debris in LEO originally from a launch on Tue, 06 Aug 2024 UTC launched from the Taiyaun Space Center, China (TSC). Debris objects in space refer to the collection of defunct objects orbiting the Earth. Examples of debris include non-operational satellites, rocket bodies, and fragments generated from explosions, collisions, or faulty payload assembly.

Loading next visibility...
Identifier
61141, 2024-140QK
Orbit
LEO
Country
Flag of CNCN / PRC
Related business
Manufacturer
SAST
Mission
Spacecraft
Bus & Motor
Unknown
Mass
Unknown
Launch date (UTC)
2024-08-06 (2 years ago)
Launch vehicle
Unknown
Launch site
Taiyaun Space Center, China (TSC)
Object type
Payload
Rocket body
Debris
Shape & HBR
Unknown shape, 0.1 m
Radar Cross Section
Medium (>0.1 m² and <1 m²)

Expand to show TLE details & history
Last TLE update: 2 days ago

TLE from 2 days ago
0 CZ-6A DEB
1 61141U 24140QK  26170.19359325  .00002152  00000-0  62235-3 0  9998
2 61141  88.4765 229.1809 0094346  18.1419 342.3110 14.41613964 95719
Epoch: 2026-06-19T04:38Z
TLE epoch observation values (Epoch: 2026-06-19T04:38:46.456Z)
Latitude
-0.0001°
Longitude
-107.93875°
Altitude
692.198 km
Speed
7.544 km/s
True Right ascension
15h 16m 43s
True Declination
0° 00' 00"
Sunlit
Object was in full shadow at epoch
Visualization orbit readout
Latitude
Unknown
Longitude
Unknown
Altitude
Unknown
Speed
Unknown
Apparent Right ascension
Unknown
Apparent Declination
Unknown
Sunlit
N/A
Visualization observer readout
Local Sidereal Time
07:24:28
Azimuth
Unknown
Elevation
Unknown
Doppler factor
Unknown
Orbital elements
Apogee altitude
817.347 km
Perigee altitude
682.842 km
Semi-major axis
7,128.232 km
Eccentricity
0.00943
Inclination
88.4765°
RAAN
229.1809°
Arg. of periapsis
18.1419°
True anomaly
341.97877°
Mean anomaly
342.311°
Eccentric anomaly
342.14526°
Mean motion
3.60637 °/min
Orbital period
99.82 mins
BSTAR
0.00062235
Loading maneuver chart data...
Computing Atmospheric mass density...
Loading historical data...
Loading historical data...
Loading historical data...
Loading historical data...
Loading historical data...
Loading historical data...
Loading historical data...

Documentation

Showing up to 5 results
|